1999 YB   

Epoch 1999 Dec. 28.0 TT = JDT 2451540.5                 Nakano

M 240.15800              (2000.0)            P               Q

n   0.64914193     Peri.  192.74613     -0.72231657     +0.68886605

a   1.3210207      Node    31.07390     -0.62367094     -0.61074576

e   0.0748338      Incl.    6.78854     -0.29881989     -0.39045253

P   1.52           H   18.1           G   0.15           U   *

Residuals in seconds of arc 

991213 704  0.2-  0.4+    991217 118  0.0   0.0     991230 704  0.1-  0.1-  

991213 704  0.1-  0.1+    991217 670  0.6+  1.5+    991230 704  0.5+  0.9+  

991213 704  0.3-  0.1+    991217 670  0.2-  0.1-    991230 704  0.7+  0.7+  

991213 704  0.1-  0.1-    991220 557  0.2+  0.5-    991231 704  0.4-  0.5-  

991213 704  0.1-  0.3-    991220 557  0.0   0.8-    991231 704  0.6-  0.1-  

991216 699  0.3+  0.1-    991220 557  0.1-  0.3-    991231 704  0.8+  0.4-  

991216 699  0.1-  0.5+    991220 670  0.6-  0.5-    991231 704  0.5-  0.4+  

991216 699  0.8-  0.2+    991220 670  0.2-  0.2+    991231 704  0.4-  0.4+  

991217 046  0.1-  0.7-    991222 118  0.1+  0.0     000103 360  0.1-  0.0   

991217 046  1.0+  0.6-    991223 118  0.3-  0.4+    000103 360  0.1-  0.1+  

991217 046  0.3+  0.1+    991229 402  0.1-  0.2-    000103 360  0.1+  0.0   

991217 046  0.2+  0.1+    991229 402  0.3+  0.5-    000104 402  0.3+  0.1+  

991217 118  0.5+  0.0     991229 402  0.5-  0.6-    000104 402  0.0   0.1-  

991217 118  0.1+  0.0     991230 704  0.3-  0.6+    000104 402  0.2+  0.3-  

 

NAKANO

         **** Don't distribute anyone except personal use only ****

                (C) Copyright 2000 OAA/ComputingSection

write mail from CFAD0::NAKANO on 2000-01-05 23:21:21(JST).





1999 YB   

Epoch 1999 Dec. 28.0 TT = JDT 2451540.5                 Nakano

M 240.12104              (2000.0)            P               Q

n   0.64896577     Peri.  192.77531     -0.72173962     +0.68946281

a   1.3212597      Node    31.09275     -0.62418843     -0.61017027

e   0.0749778      Incl.    6.79454     -0.29913329     -0.39029896

P   1.52           H   18.2           G   0.15           U   *

Residuals in seconds of arc 

991216 699  0.1+  0.2-    991217 118  0.1-  0.0     991223 118  0.2-  0.7+  

991216 699  0.3-  0.4+    991217 670  0.5+  1.5+    991229 402  0.2-  0.3-  

991216 699  1.0-  0.1+    991217 670  0.2-  0.1-    991229 402  0.3+  0.6-  

991217 046  0.2-  0.7-    991220 557  0.2+  0.3-    991229 402  0.5-  0.7-  

991217 046  0.9+  0.6-    991220 557  0.1+  0.6-    991230 704  0.4-  0.4+  

991217 046  0.1+  0.0     991220 557  0.1-  0.1-    991230 704  0.2-  0.2-  

991217 046  0.1+  0.0     991220 670  0.5-  0.3-    991230 704  0.4+  0.7+  

991217 118  0.4+  0.1-    991220 670  0.1-  0.4+    991230 704  0.6+  0.5+  

991217 118  0.0   0.0     991222 118  0.3+  0.2+                            

 

NAKANO

         **** Don't distribute anyone except personal use only ****

                (C) Copyright 1999 OAA/ComputingSection

write mail from CFAD0::NAKANO on 1999-12-31 22:22:03(JST).

 



–ß‚è‚Ü‚·B